Regional Weather Roundup
Issued by NWS Spokane, WA

Home | Current Version | Previous Version | Text Only | Print | Product List | Glossary On
Versions: 1 2 3 4 5 6 7 8 9 10 11 12 13 14 15 16 17 18 19 20 21 22 23 24 25 26 27 28 29 30 31 32 33 34 35 36 37 38 39 40 41 42 43 44 45 46 47 48 49 50
000
NZUS01 KOTX 051410
RWROTX
EASTERN WASHINGTON/NORTHERN IDAHO ROUNDUP
NATIONAL WEATHER SERVICE, SPOKANE WA
600 AM PST THU MAR 05 2015

Note: "fair" indicated few or no clouds below 12,000 feet with no
significant weather and/or obstructions to visibility.

...NORTHEAST WASHINGTON AND NORTHERN IDAHO PANHANDLE...

CITY           SKY/WX    TMP DP  RH WIND       PRES   REMARKS
SPOKANE INTL   MOCLDY    27  18  69 CALM      30.27R
SPOKANE DOWNTO PTCLDY    26  19  74 CALM      30.31R
COEUR D ALENE  PTCLDY    21  14  73 E5        30.29R WCI  15
DEER PARK      CLEAR     20  17  88 CALM      30.29R
SANDPOINT      CLEAR     21  21 100 CALM      30.31R
BONNERS FERRY  FAIR      19  16  86 CALM      30.31R

...SOUTHEAST WASHINGTON AND SOUTHERN IDAHO PANHANDLE...

CITY           SKY/WX    TMP DP  RH WIND       PRES   REMARKS
WALLA WALLA    MOCLDY    35  20  54 CALM      30.28R
PULLMAN/MOSCOW MOCLDY    30  15  53 E7        30.29S WCI  23
LEWISTON       MOCLDY    27  19  72 CALM      30.33S
LOWELL           N/A     25  19  78 N6        30.45R WCI  18

...COLUMBIA BASIN...

CITY           SKY/WX    TMP DP  RH WIND       PRES   REMARKS
EPHRATA        PTCLDY    29  21  72 N8        30.28S WCI  21
MOSES LAKE     PTCLDY    25  21  85 N7        30.30R WCI  17
TRI CITIES     PTCLDY    24  21  88 NW3       30.33R
HERMISTON      PTCLDY    25  18  74 S6        30.31R WCI  18
PENDLETON      PTCLDY    31  17  56 SE5       30.27R WCI  26

...EAST SLOPES CASCADES...

CITY           SKY/WX    TMP DP  RH WIND       PRES   REMARKS
THE DALLES     CLEAR     27  23  85 SE5       30.34R WCI  22
YAKIMA         PTCLDY    25  21  85 W3        30.30R
ELLENSBURG     PTCLDY    28  22  78 NE3       30.26S
WENATCHEE      MOCLDY    33  25  72 CALM      30.29R
OMAK           MOCLDY    26  18  71 CALM      30.31R

...SOUTHERN BRITISH COLUMBIA...

CITY           SKY/WX    TMP DP  RH WIND       PRES   REMARKS
PENTICTON      PTCLDY    23  16  74 VRB2      30.32S
CASTLEGAR      PTCLDY    19  14  79 CALM      30.36
CRANBROOK      PTCLDY    10   5  79 CALM      30.28R

...WESTERN MONTANA...

CITY           SKY/WX    TMP DP  RH WIND       PRES   REMARKS
MISSOULA       PTCLDY    18  12  77 N3        30.33R

...NEIGHBORING CITIES...

CITY           SKY/WX    TMP DP  RH WIND       PRES   REMARKS
SEATTLE        MOCLDY    38  28  67 SE3       30.32R
CALGARY        PTCLDY    32   9  37 CALM      29.97S



USA.gov is the U.S. government's official web portal to all federal, state and local government web resources and services.